Regional Weather Roundup
Issued by NWS

Home | Current Version | Previous Version | Text Only | Print | Product List | Glossary Off
Versions: 1 2 3 4 5 6 7 8 9 10 11 12 13 14 15 16 17 18 19 20 21 22 23 24 25 26 27 28 29 30 31 32 33 34 35 36 37 38 39 40 41 42 43 44 45 46 47 48 49 50

743
ASUS43 KDTX 221710
RWRMI
MICHIGAN HOURLY REGIONAL WEATHER ROUNDUP
NATIONAL WEATHER SERVICE DETROIT/PONTIAC MI
100 PM EDT SUN OCT 22 2017

NOTE: "FAIR" INDICATES FEW OR NO CLOUDS BELOW 12,000 FEET WITH NO
SIGNIFICANT WEATHER AND/OR OBSTRUCTION TO VISIBILITY.

MIZ047>049-052>055-059>063-066>070-074>076-081>083-221800-
SOUTHEAST LOWER MICHIGAN

CITY           SKY/WX    TMP DP  RH WIND       PRES   REMARKS
ADRIAN         SUNNY     73  55  53 S17G24    30.12F
ALMA           SUNNY     73  52  47 S13G26    30.04F
ANN ARBOR      SUNNY     73  57  57 S13G22    30.11F
BAD AXE        SUNNY     73  50  44 S17       30.09F
CARO           SUNNY     75  53  45 S13G24    30.07F
DETROIT CITY   SUNNY     71  55  56 S12       30.14F
DETROIT        MOSUNNY   73  56  54 S13       30.14F
FLINT          SUNNY     72  55  55 S18G24    30.08F
GROSSE ILE     SUNNY     67  57  70 S10       30.14F
HILLSDALE      MOSUNNY   72  54  53 S13G20    30.10F
HOWELL         SUNNY     73  56  56 SE13G20   30.09F

CITY           SKY/WX    TMP DP  RH WIND       PRES   REMARKS
JACKSON        SUNNY     72  55  55 S13       30.09F
LAMBERTVILLE   SUNNY     76  54  47 S9        30.13F
LANSING        SUNNY     74  55  51 S20       30.05F
LAPEER         FAIR      72  54  52 S13G21    30.11F
MASON          SUNNY     74  56  52 S13G21    30.07F
MONROE         SUNNY     74  55  49 S13G28    30.13F
MT. CLEMENS    MOSUNNY   71  57  61 S14       30.12F
PONTIAC        PTSUNNY   71  56  58 S13G20    30.10F
PORT HOPE        N/A     75  51  43 S8G16     30.06F
PORT HURON     SUNNY     75  54  46 S17G23    30.14F
TRI CITIES     SUNNY     73  56  54 S18G26    30.05F
MIDLAND        FAIR      74  54  48 S7G21     30.03F
TROY           SUNNY     72  55  54 S12G18    30.14F
SAGINAW HB     SUNNY     73  54  49 S16G23    30.05F
$$
MIZ043>046-050>051-056>058-064>065-071>073-077>080-221800-
SOUTHWEST LOWER MICHIGAN

CITY           SKY/WX    TMP DP  RH WIND       PRES   REMARKS
BATTLE CREEK   MOSUNNY   72  58  61 S18       30.06F
BENTON HARBOR  CLOUDY    71  57  61 S14       30.00F
BIG RAPIDS     MOSUNNY   73  54  51 S13G26    29.99F
COLDWATER      PTSUNNY   74  55  51 S9G25     30.08S
FREMONT        CLOUDY    71  57  61 S10G18    29.98S
HOLLAND        PTSUNNY   74  59  59 S16       29.99F
GRAND RAPIDS   PTSUNNY   75  59  57 S13G22    30.01F
IONIA          FAIR      75  56  51 S16G23    30.02F
KALAMAZOO      MOSUNNY   72  56  57 S15G23    30.04F
LUDINGTON      CLOUDY    67  57  70 S14G26    29.93F
MARSHALL       PTSUNNY   72  56  58 S14G23    30.07F
MOUNT PLEASANT SUNNY     74  53  46 S16       30.02F
MUSKEGON       CLOUDY    72  59  63 S16G25    29.97F
SOUTH HAVEN    CLOUDY    72  58  59 S13G20    30.00F
$$
MIZ016>042-221800-
NORTHERN LOWER MICHIGAN

CITY           SKY/WX    TMP DP  RH WIND       PRES   REMARKS
ALPENA         SUNNY     74  57  55 S14G20    30.01F
BEAVER ISLAND  CLOUDY    71  56  60 SW13      29.92F
BELLAIRE       CLOUDY    73  55  52 S14G22    29.94F
CADILLAC       MOSUNNY   74  55  50 S13G25    29.98F
CHARLEVOIX     CLOUDY    72  56  57 S12G20    29.96S
FRANKFORT      CLOUDY    71  57  62 S8G21     29.93R
GAYLORD        SUNNY     71  52  50 S21G30    29.98F
GRAYLING       SUNNY     70  51  51 S8G22     30.01S
HARBOR SPRINGS PTSUNNY   74  54  49 S14G21    29.93F
HOUGHTON LAKE  SUNNY     73  53  49 S14       30.01F
MANISTEE       LGT RAIN  69  58  67 S13G20    29.93F
OSCODA         SUNNY     72  50  44 S17G25    30.04F
PELLSTON       MOSUNNY   77  57  50 SW10G23   29.94F
ROGERS CITY    SUNNY     73  55  53 S15       29.99F
TRAVERSE CITY  PTSUNNY   75  57  53 S9        29.91F
$$
MIZ007>008-015-221800-
EASTERN UPPER MICHIGAN

CITY           SKY/WX    TMP DP  RH WIND       PRES   REMARKS
KINROSS        CLOUDY    67  55  65 S10       29.95S
MACKINAC ISLAN CLOUDY    71  53  52 S8        29.93F
NEWBERRY       CLOUDY    64  58  81 S17       29.91S HAZE
S. S. MARIE    CLOUDY    69  55  60 SE13G20   29.93F
MUNISING         N/A     61  60  97 SW6       29.87R
$$
MIZ004>006-011>014-085-221800-
CENTRAL UPPER MICHIGAN

CITY           SKY/WX    TMP DP  RH WIND       PRES   REMARKS
MANISTIQUE     CLOUDY    60  54  80 S7        29.89S
ESCANABA       LGT RAIN  55  54  94 NW12G21   29.89R
MENOMINEE      RAIN      53  49  86 NW10G22   29.95R FOG
SAWYER-GWINN   LGT RAIN  52  48  87 W12G18    29.92R
$$
MIZ001>003-009>011-084-221800-
WESTERN UPPER MICHIGAN

CITY           SKY/WX    TMP DP  RH WIND       PRES   REMARKS
IRON MOUNTAIN  LGT RAIN  51  47  86 NW7       29.91R FOG
HOUGHTON       LGT RAIN  52  46  80 W15       29.86S
COPPER HARBOR    N/A     53  45  74 W7        29.84S
IRONWOOD       CLOUDY    50  39  66 W13       29.92R
$$

ABBREVIATIONS USED IN REMARKS
   TC - TEMPERATURE IN CELSIUS
  WCI - WIND CHILL INDEX
   HX - HEAT INDEX
  VSB - VISIBILITY





USA.gov is the U.S. government's official web portal to all federal, state and local government web resources and services.